Weather History for Gary, IN

Change the Weather History Date:

Sunday, March 16, 2014

  Actual Average Record
Temperature  
Mean Temperature 26 °F -  
Max Temperature 32 °F 43 °F 82 °F (2012)
Min Temperature 21 °F 26 °F 16 °F (1949)
Degree Days  
Heating Degree Days 38    
Moisture  
Dew Point 13 °F    
Average Humidity 57    
Maximum Humidity 67    
Minimum Humidity 47    
Precipitation  
Precipitation 0.00 in - - ()
Sea Level Pressure  
Sea Level Pressure 30.26 in    
Wind  
Wind Speed 18 mph (NE)    
Max Wind Speed 29 mph    
Max Gust Speed 40 mph    
Visibility 12 miles    
Events      
Averages and records for this station are not official NWS values.
T = Trace of Precipitation, MM = Missing Value Source: NWS Daily Summary

Daily Weather History Graph

Daily Weather History Graph

Search for Another Location

Airport:

Trip Planner

Search our weather history database for the weather conditions in past years. The results will help you decide how hot, cold, wet, or windy it might be!

Date:

Astronomy

Mar. 16, 2014 Rise Set
Actual Time 6:59 AM CDT 6:57 PM CDT
Civil Twilight 6:32 AM CDT 7:25 PM CDT
Nautical Twilight 5:59 AM CDT 7:57 PM CDT
Astronomical Twilight 5:27 AM CDT 8:30 PM CDT
Moon 7:15 PM CDT (3/16) 6:42 AM CDT (3/16)
Length of Visible Light 12h 52m
Length of Day
11h 57m
Full, 100% of the Moon is Illuminated
Mar 16
Full
Mar 16
Full
Mar 23
Last Quarter
Mar 30
New
Apr 7
First Quarter

Hourly Weather History & Observations

Time (CDT) Temp. Windchill Dew Point Humidity Pressure Visibility Wind Dir Wind Speed Gust Speed Precip Events Conditions
12:15 AM 32.0 °F 22.1 °F 21.6 °F 65% 30.26 in 10.0 mi NE 13.8 mph 21.9 mph N/A   Overcast
12:35 AM 32.0 °F 20.5 °F 22.1 °F 67% 30.27 in 10.0 mi NNE 18.4 mph - N/A   Overcast
12:55 AM 32.0 °F 20.5 °F 20.8 °F 63% 30.28 in 10.0 mi NE 18.4 mph 24.2 mph N/A   Overcast
1:15 AM 32.0 °F 19.8 °F 19.6 °F 60% 30.27 in 10.0 mi NNE 20.7 mph 24.2 mph N/A   Overcast
1:35 AM 31.5 °F 18.8 °F 18.5 °F 59% 30.28 in 10.0 mi NE 21.9 mph 28.8 mph N/A   Overcast
1:55 AM 31.5 °F 20.5 °F 19.0 °F 60% 30.29 in 10.0 mi NE 16.1 mph 26.5 mph N/A   Overcast
2:15 AM 30.9 °F 19.4 °F 17.6 °F 58% 30.29 in 10.0 mi NE 17.3 mph 29.9 mph N/A   Overcast
2:35 AM 30.2 °F 18.1 °F 15.6 °F 55% 30.29 in 10.0 mi NNE 18.4 mph 31.1 mph N/A   Overcast
2:55 AM 29.8 °F 16.0 °F 13.1 °F 50% 30.29 in 10.0 mi NNE 24.2 mph 34.5 mph N/A   Overcast
3:15 AM 29.3 °F 15.3 °F 14.0 °F 53% 30.29 in 10.0 mi NNE 24.2 mph 31.1 mph N/A   Overcast
3:35 AM 28.8 °F 14.3 °F 14.2 °F 55% 30.29 in 10.0 mi NNE 25.3 mph 31.1 mph N/A   Overcast
3:55 AM 27.9 °F 13.1 °F 9.7 °F 47% 30.30 in 10.0 mi NNE 25.3 mph 33.4 mph N/A   Overcast
4:15 AM 27.5 °F 13.9 °F 10.8 °F 49% 30.30 in 10.0 mi NNE 20.7 mph 26.5 mph N/A   Overcast
4:45 AM 26.6 °F 11.4 °F 12.2 °F 55% 30.30 in 10.0 mi NNE 25.3 mph 39.1 mph N/A   Overcast
5:45 AM 24.8 °F 10.7 °F 10.4 °F 54% 30.32 in 10.0 mi NE 19.6 mph 39.1 mph N/A   Overcast
6:45 AM 24.8 °F 11.9 °F 10.4 °F 54% 30.31 in 10.0 mi NE 16.1 mph 36.8 mph N/A   Overcast
7:45 AM 23.0 °F 7.2 °F 12.2 °F 63% 30.32 in 20.0 mi NNE 23.0 mph 36.8 mph N/A   Mostly Cloudy
8:45 AM 21.2 °F 3.3 °F 10.4 °F 63% 30.32 in 20.0 mi NNE 28.8 mph 40.3 mph N/A   Mostly Cloudy
9:45 AM 21.2 °F 3.3 °F 8.6 °F 58% 30.34 in 20.0 mi NNE 28.8 mph 40.3 mph N/A   Mostly Cloudy
10:45 AM 23.0 °F 7.2 °F 6.8 °F 50% 30.35 in 20.0 mi NE 23.0 mph 34.5 mph N/A   Mostly Cloudy
11:45 AM 23.0 °F 9.2 °F 8.6 °F 54% 30.36 in 15.0 mi NE 17.3 mph 28.8 mph N/A   Mostly Cloudy
12:45 PM 24.8 °F 11.5 °F 8.6 °F 50% 30.33 in 15.0 mi NE 17.3 mph 28.8 mph N/A   Mostly Cloudy
1:45 PM 26.6 °F 13.8 °F 8.6 °F 47% 30.31 in 15.0 mi NNE 17.3 mph 28.8 mph N/A   Mostly Cloudy
2:45 PM 26.6 °F 16.2 °F 10.4 °F 51% 30.28 in 15.0 mi NNE 11.5 mph 27.6 mph N/A   Mostly Cloudy
3:45 PM 26.6 °F 13.8 °F 10.4 °F 51% 30.26 in 15.0 mi NE 17.3 mph 28.8 mph N/A   Mostly Cloudy
5:45 PM 26.6 °F 13.8 °F 12.2 °F 55% 30.22 in 15.0 mi NE 17.3 mph 32.2 mph N/A   Mostly Cloudy
6:45 PM 24.8 °F 11.5 °F 12.2 °F 59% 30.20 in 15.0 mi NE 17.3 mph 32.2 mph N/A   Mostly Cloudy
7:45 PM 24.8 °F 11.5 °F 12.2 °F 59% 30.21 in 15.0 mi NE 17.3 mph 32.2 mph N/A   Scattered Clouds
8:45 PM 24.8 °F 11.5 °F 12.2 °F 59% 30.19 in 15.0 mi ENE 17.3 mph 28.8 mph N/A   Partly Cloudy
9:15 PM 25.3 °F 13.6 °F 11.8 °F 57% 30.19 in 10.0 mi ENE 13.8 mph 19.6 mph N/A   Clear
9:35 PM 25.0 °F 13.6 °F 11.7 °F 57% 30.19 in 10.0 mi NE 12.7 mph 17.3 mph N/A   Clear
9:45 PM 24.8 °F 12.9 °F 10.4 °F 54% 30.19 in 15.0 mi ENE 13.8 mph 25.3 mph N/A   Clear
9:55 PM 24.8 °F 12.9 °F 11.5 °F 57% 30.18 in 10.0 mi ENE 13.8 mph - N/A   Clear
10:15 PM 24.6 °F 13.8 °F 12.2 °F 59% 30.17 in 10.0 mi ENE 11.5 mph 17.3 mph N/A   Clear
10:35 PM 24.1 °F 12.5 °F 12.0 °F 60% 30.17 in 10.0 mi NE 12.7 mph - N/A   Clear
10:55 PM 23.9 °F 12.9 °F 12.7 °F 62% 30.17 in 10.0 mi ENE 11.5 mph - N/A   Clear
11:15 PM 23.7 °F 12.1 °F 12.4 °F 62% 30.17 in 10.0 mi ENE 12.7 mph - N/A   Clear
11:35 PM 23.0 °F 12.4 °F 12.9 °F 65% 30.17 in 10.0 mi NE 10.4 mph - N/A   Clear
11:55 PM 23.0 °F 12.4 °F 13.3 °F 66% 30.16 in 10.0 mi NE 10.4 mph - N/A   Clear